Location: Bangkok
(13.7500°N, 100.5170°E)
Time: 16:33:36
(UTC+07:00)

Hubble Space Telescope - Visible Passes

Search period start: 27 May 2015 00:00
Search period end: 06 June 2015 00:00
Orbit: 542 x 546 km, 28.5° (Epoch: 26 May)

Date Brightness Start Highest point End Pass type
(mag) Time Alt. Az. Time Alt. Az. Time Alt. Az.
27 May 1.3 04:49:27 21° SW 04:51:55 50° SSE 04:55:56 10° ENE visible
28 May 0.8 04:41:18 30° SW 04:43:14 74° SSE 04:47:22 10° ENE visible
29 May 0.7 04:33:06 39° WSW 04:34:33 78° NNW 04:38:42 10° ENE visible
30 May 1.1 04:24:51 42° WNW 04:25:53 55° NNW 04:29:57 10° NE visible
31 May 1.5 04:16:34 37° NW 04:17:15 40° NNW 04:21:10 10° NE visible
01 Jun 2.0 04:08:14 30° NNW 04:08:38 31° NNW 04:12:19 10° NE visible
02 Jun 2.5 03:59:52 24° NNW 04:00:02 24° NNW 04:03:25 10° NE visible
03 Jun 2.8 03:51:29 20° NNW 03:51:29 20° NNW 03:54:30 10° NNE visible
04 Jun 3.1 03:43:05 16° N 03:43:05 16° N 03:45:33 10° NNE visible
04 Jun 3.7 05:24:51 10° N 05:25:06 10° N 05:25:20 10° N visible
05 Jun 3.4 03:34:41 14° N 03:34:41 14° N 03:36:35 10° NNE visible
05 Jun 3.8 05:16:22 10° N 05:16:37 10° N 05:16:52 10° N visible
